DAL422 KATL-KLGA

Flight info

Callsign DAL422
Flight time N/A
Altitude 35000
Route JACCC2 KELLN BYJAC Q60 HURTS PROUD2
Aircraft A21N/M-SDE2E3FGHIRWXY/LB1

Departure

Time 2026-05-07 18:09
Airport Hartsfield Jackson Atlanta International Airport (KATL)

Arrival

Time N/A
Airport LaGuardia Airport (KLGA)
Time Latitude Longitude Altitude Speed Heading
2026-05-07 17:43 33.63762 -84.43862 1016 ft 0 kts 284°
2026-05-07 17:56 33.63761 -84.43861 1016 ft 1 kts 284°
2026-05-07 17:56 33.63759 -84.43849 1016 ft 2 kts 279°
2026-05-07 17:56 33.63760 -84.43832 1016 ft 2 kts 256°
2026-05-07 17:57 33.63765 -84.43815 1015 ft 2 kts 238°
2026-05-07 17:57 33.63771 -84.43805 1015 ft 2 kts 226°
2026-05-07 17:57 33.63787 -84.43791 1016 ft 2 kts 202°
2026-05-07 17:57 33.63802 -84.43787 1016 ft 1 kts 184°
2026-05-07 17:58 33.63808 -84.43787 1016 ft 1 kts 178°
2026-05-07 17:58 33.63810 -84.43787 1016 ft 0 kts 179°
2026-05-07 18:00 33.63784 -84.43786 1015 ft 5 kts 179°
2026-05-07 18:00 33.63743 -84.43786 1015 ft 6 kts 180°
2026-05-07 18:00 33.63696 -84.43778 1015 ft 7 kts 161°
2026-05-07 18:00 33.63667 -84.43726 1015 ft 8 kts 102°
2026-05-07 18:01 33.63658 -84.43650 1014 ft 10 kts 96°
2026-05-07 18:01 33.63655 -84.43557 1012 ft 12 kts 88°
2026-05-07 18:01 33.63658 -84.43451 1011 ft 13 kts 87°
2026-05-07 18:01 33.63663 -84.43336 1010 ft 14 kts 88°
2026-05-07 18:02 33.63667 -84.43078 1007 ft 16 kts 91°
2026-05-07 18:02 33.63665 -84.42937 1005 ft 17 kts 93°
2026-05-07 18:02 33.63660 -84.42783 1003 ft 18 kts 92°
2026-05-07 18:03 33.63656 -84.42622 999 ft 20 kts 92°
2026-05-07 18:03 33.63654 -84.42442 994 ft 22 kts 89°
2026-05-07 18:03 33.63656 -84.42248 988 ft 24 kts 90°
2026-05-07 18:03 33.63657 -84.42039 982 ft 25 kts 90°
2026-05-07 18:04 33.63656 -84.41811 973 ft 28 kts 90°
2026-05-07 18:04 33.63654 -84.41579 968 ft 28 kts 90°
2026-05-07 18:04 33.63655 -84.41480 966 ft 0 kts 90°
2026-05-07 18:05 33.63655 -84.41472 966 ft 2 kts 90°
2026-05-07 18:05 33.63656 -84.41422 964 ft 8 kts 90°
2026-05-07 18:05 33.63656 -84.41346 963 ft 9 kts 90°
2026-05-07 18:06 33.63650 -84.40884 956 ft 12 kts 104°
2026-05-07 18:06 33.63604 -84.40829 955 ft 0 kts 161°
2026-05-07 18:07 33.63602 -84.40828 955 ft 0 kts 163°
2026-05-07 18:07 33.63583 -84.40826 955 ft 7 kts 175°
2026-05-07 18:07 33.63523 -84.40827 955 ft 9 kts 190°
2026-05-07 18:07 33.63479 -84.40874 956 ft 8 kts 261°
2026-05-07 18:08 33.63475 -84.40920 957 ft 26 kts 268°
2026-05-07 18:08 33.63470 -84.41438 965 ft 93 kts 269°
2026-05-07 18:08 33.63472 -84.42442 995 ft 147 kts 271°
2026-05-07 18:08 33.63444 -84.43841 1189 ft 177 kts 270°
2026-05-07 18:09 33.63406 -84.45342 1762 ft 182 kts 271°
2026-05-07 18:09 33.63380 -84.46847 2498 ft 182 kts 270°
2026-05-07 18:09 33.63184 -84.48316 3211 ft 181 kts 255°
2026-05-07 18:09 33.62615 -84.49686 3722 ft 190 kts 244°
2026-05-07 18:10 33.61944 -84.51093 4136 ft 202 kts 245°
2026-05-07 18:10 33.61255 -84.52646 4428 ft 221 kts 246°
2026-05-07 18:10 33.60518 -84.54374 4775 ft 240 kts 246°
2026-05-07 18:10 33.59739 -84.56193 5312 ft 252 kts 243°
2026-05-07 18:11 33.58535 -84.57729 6022 ft 264 kts 217°
2026-05-07 18:11 33.57391 -84.58315 6564 ft 272 kts 200°
2026-05-07 18:11 33.54841 -84.58459 7581 ft 280 kts 187°
2026-05-07 18:11 33.52892 -84.58443 8273 ft 283 kts 188°
2026-05-07 18:12 33.50904 -84.58434 8966 ft 285 kts 188°
2026-05-07 18:12 33.48929 -84.58253 9563 ft 300 kts 173°
2026-05-07 18:12 33.47041 -84.57012 10167 ft 323 kts 143°
2026-05-07 18:12 33.45736 -84.54745 10634 ft 345 kts 114°
2026-05-07 18:13 33.45311 -84.51832 10927 ft 363 kts 91°
2026-05-07 18:13 33.45377 -84.48744 11242 ft 376 kts 86°
2026-05-07 18:13 33.45521 -84.45593 11726 ft 383 kts 87°
2026-05-07 18:13 33.45604 -84.42400 12245 ft 389 kts 89°
2026-05-07 18:14 33.45624 -84.39097 12764 ft 394 kts 90°
2026-05-07 18:14 33.45634 -84.35819 13255 ft 399 kts 86°
2026-05-07 18:14 33.46110 -84.32544 13726 ft 400 kts 69°
2026-05-07 18:14 33.47205 -84.29527 14235 ft 399 kts 57°
2026-05-07 18:15 33.48538 -84.26599 14718 ft 402 kts 55°
2026-05-07 18:15 33.49916 -84.23680 15185 ft 407 kts 55°
2026-05-07 18:15 33.51325 -84.20672 15630 ft 412 kts 56°
2026-05-07 18:15 33.52703 -84.17663 16061 ft 418 kts 56°
2026-05-07 18:16 33.54098 -84.14573 16525 ft 422 kts 56°
2026-05-07 18:16 33.55496 -84.11457 16953 ft 427 kts 57°
2026-05-07 18:16 33.56886 -84.08342 17324 ft 432 kts 57°
2026-05-07 18:16 33.58310 -84.05138 17756 ft 437 kts 57°
2026-05-07 18:17 33.59744 -84.01910 18166 ft 441 kts 57°
2026-05-07 18:17 33.61199 -83.98631 18636 ft 443 kts 57°
2026-05-07 18:17 33.62645 -83.95369 19082 ft 445 kts 57°
2026-05-07 18:17 33.64086 -83.92117 19512 ft 448 kts 57°
2026-05-07 18:18 33.65553 -83.88805 19917 ft 451 kts 57°
2026-05-07 18:18 33.67049 -83.85426 20313 ft 454 kts 57°
2026-05-07 18:18 33.68516 -83.82104 20717 ft 457 kts 57°
2026-05-07 18:18 33.70019 -83.78702 21098 ft 460 kts 57°
2026-05-07 18:19 33.71520 -83.75303 21473 ft 463 kts 57°
2026-05-07 18:19 33.73025 -83.71880 21854 ft 465 kts 57°
2026-05-07 18:19 33.74536 -83.68445 22222 ft 468 kts 57°
2026-05-07 18:19 33.76088 -83.65007 22584 ft 469 kts 54°
2026-05-07 18:20 33.77782 -83.61684 22923 ft 470 kts 51°
2026-05-07 18:20 33.79574 -83.58340 23289 ft 472 kts 51°
2026-05-07 18:20 33.81359 -83.55048 23596 ft 476 kts 51°
2026-05-07 18:20 33.83179 -83.51686 23946 ft 479 kts 51°
2026-05-07 18:21 33.84985 -83.48329 24317 ft 481 kts 51°
2026-05-07 18:21 33.86783 -83.44976 24652 ft 484 kts 51°
2026-05-07 18:21 33.88622 -83.41533 25008 ft 486 kts 51°
2026-05-07 18:21 33.90411 -83.38181 25319 ft 489 kts 51°
2026-05-07 18:22 33.92254 -83.34728 25634 ft 492 kts 52°
2026-05-07 18:22 33.92881 -83.33553 25726 ft 494 kts 51°
2026-05-07 18:22 33.95973 -83.27740 26207 ft 497 kts 52°
2026-05-07 18:22 33.97866 -83.24177 26632 ft 496 kts 51°
2026-05-07 18:23 33.99714 -83.20686 27104 ft 493 kts 51°
2026-05-07 18:23 34.01565 -83.17195 27381 ft 496 kts 51°
2026-05-07 18:23 34.03467 -83.13610 27651 ft 498 kts 51°
2026-05-07 18:23 34.05340 -83.10079 27914 ft 501 kts 51°
2026-05-07 18:24 34.07204 -83.06551 28219 ft 502 kts 51°
2026-05-07 18:24 34.09077 -83.03011 28462 ft 505 kts 51°
2026-05-07 18:24 34.10991 -82.99380 28719 ft 508 kts 51°
2026-05-07 18:24 34.12899 -82.95758 29005 ft 509 kts 51°
2026-05-07 18:25 34.14811 -82.92115 29269 ft 512 kts 51°
2026-05-07 18:25 34.16730 -82.88448 29515 ft 514 kts 52°
2026-05-07 18:25 34.18616 -82.84837 29767 ft 516 kts 52°
2026-05-07 18:25 34.20546 -82.81142 29970 ft 520 kts 51°
2026-05-07 18:26 34.22490 -82.77399 30228 ft 522 kts 52°
2026-05-07 18:26 34.24433 -82.73666 30478 ft 524 kts 52°
2026-05-07 18:26 34.26374 -82.69932 30705 ft 526 kts 52°
2026-05-07 18:26 34.28318 -82.66182 30951 ft 528 kts 52°
2026-05-07 18:27 34.30289 -82.62389 31169 ft 530 kts 52°
2026-05-07 18:27 34.32247 -82.58611 31398 ft 533 kts 52°
2026-05-07 18:27 34.34194 -82.54845 31633 ft 534 kts 52°
2026-05-07 18:27 34.35520 -82.52280 31789 ft 535 kts 52°
2026-05-07 18:28 34.38166 -82.47158 32080 ft 538 kts 52°
2026-05-07 18:28 34.40152 -82.43308 32295 ft 540 kts 52°
2026-05-07 18:28 34.42125 -82.39480 32488 ft 543 kts 52°
2026-05-07 18:28 34.44138 -82.35562 32703 ft 545 kts 53°
2026-05-07 18:29 34.46034 -82.31606 32875 ft 549 kts 56°
2026-05-07 18:29 34.47905 -82.27512 33040 ft 551 kts 57°
2026-05-07 18:29 34.49750 -82.23413 33250 ft 552 kts 57°
2026-05-07 18:29 34.51685 -82.19437 33430 ft 552 kts 52°
2026-05-07 18:30 34.53840 -82.15606 33613 ft 549 kts 47°
2026-05-07 18:30 34.56192 -82.12004 33796 ft 547 kts 43°
2026-05-07 18:30 34.58699 -82.08513 34011 ft 546 kts 41°
2026-05-07 18:30 34.61231 -82.05090 34188 ft 548 kts 40°
2026-05-07 18:31 34.63775 -82.01651 34401 ft 548 kts 40°
2026-05-07 18:31 34.66336 -81.98173 34636 ft 549 kts 41°
2026-05-07 18:31 34.67999 -81.95903 34780 ft 549 kts 41°
2026-05-07 18:32 34.72970 -81.89072 34864 ft 552 kts 41°
2026-05-07 18:32 34.78047 -81.82056 34858 ft 554 kts 41°
2026-05-07 18:33 34.83116 -81.75020 34850 ft 553 kts 41°
2026-05-07 18:33 34.88054 -81.68160 34852 ft 553 kts 41°
2026-05-07 18:34 34.93200 -81.61003 34847 ft 554 kts 41°
2026-05-07 18:34 34.98317 -81.53857 34843 ft 554 kts 41°
2026-05-07 18:35 35.03402 -81.46749 34848 ft 554 kts 41°
2026-05-07 18:35 35.08510 -81.39605 34852 ft 555 kts 41°
2026-05-07 18:36 35.13624 -81.32431 34847 ft 557 kts 42°
2026-05-07 18:36 35.18741 -81.25235 34856 ft 558 kts 42°
2026-05-07 18:37 35.23827 -81.18059 34858 ft 557 kts 42°
2026-05-07 18:37 35.28925 -81.10859 34861 ft 557 kts 41°
2026-05-07 18:38 35.33981 -81.03709 34864 ft 556 kts 41°
2026-05-07 18:38 35.39085 -80.96483 34866 ft 558 kts 42°
2026-05-07 18:39 35.44173 -80.89246 34872 ft 558 kts 42°
2026-05-07 18:39 35.49259 -80.81996 34879 ft 558 kts 41°
2026-05-07 18:40 35.54316 -80.74785 34886 ft 558 kts 41°
2026-05-07 18:40 35.59355 -80.67580 34880 ft 557 kts 41°
2026-05-07 18:41 35.64341 -80.60426 34882 ft 557 kts 41°
2026-05-07 18:41 35.69401 -80.53172 34877 ft 558 kts 41°
2026-05-07 18:42 35.74497 -80.45834 34877 ft 558 kts 42°
2026-05-07 18:42 35.79576 -80.38497 34879 ft 557 kts 41°
2026-05-07 18:43 35.84685 -80.31124 34876 ft 558 kts 42°
2026-05-07 18:43 35.89642 -80.23935 34880 ft 558 kts 42°
2026-05-07 18:44 35.94762 -80.16435 34878 ft 560 kts 44°
2026-05-07 18:44 35.99326 -80.08461 34877 ft 564 kts 51°
2026-05-07 18:45 36.03545 -80.00261 34879 ft 564 kts 52°
2026-05-07 18:45 36.07249 -79.93093 34891 ft 563 kts 51°
2026-05-07 18:46 36.11641 -79.85033 34883 ft 561 kts 48°
2026-05-07 18:46 36.16170 -79.77122 34886 ft 562 kts 48°
2026-05-07 18:47 36.20736 -79.69124 34881 ft 561 kts 48°
2026-05-07 18:47 36.25262 -79.61141 34886 ft 561 kts 48°
2026-05-07 18:48 36.29763 -79.53173 34885 ft 562 kts 48°
2026-05-07 18:48 36.34269 -79.45168 34875 ft 561 kts 48°
2026-05-07 18:49 36.38668 -79.37347 34888 ft 561 kts 48°
2026-05-07 18:49 36.43137 -79.29388 34886 ft 561 kts 49°
2026-05-07 18:50 36.47529 -79.21529 34893 ft 561 kts 49°
2026-05-07 18:50 36.52001 -79.13521 34887 ft 561 kts 49°
2026-05-07 18:51 36.56482 -79.05463 34885 ft 561 kts 49°
2026-05-07 18:51 36.60948 -78.97421 34881 ft 562 kts 50°
2026-05-07 18:52 36.65434 -78.89246 34877 ft 563 kts 50°
2026-05-07 18:52 36.69870 -78.81108 34880 ft 562 kts 50°
2026-05-07 18:53 36.73824 -78.72633 34882 ft 565 kts 57°
2026-05-07 18:53 36.77464 -78.63854 34896 ft 564 kts 59°
2026-05-07 18:54 36.81066 -78.55134 34904 ft 564 kts 58°
2026-05-07 18:54 36.84701 -78.46397 34909 ft 564 kts 58°
2026-05-07 18:55 36.88327 -78.37698 34908 ft 563 kts 58°
2026-05-07 18:55 36.91951 -78.28984 34901 ft 562 kts 59°
2026-05-07 18:56 36.95552 -78.20300 34903 ft 563 kts 59°
2026-05-07 18:56 36.99197 -78.11451 34907 ft 562 kts 58°
2026-05-07 18:57 37.02789 -78.02734 34914 ft 563 kts 59°
2026-05-07 18:57 37.06369 -77.94023 34918 ft 562 kts 59°
2026-05-07 18:58 37.09955 -77.85269 34915 ft 562 kts 59°
2026-05-07 18:58 37.13544 -77.76482 34917 ft 562 kts 59°
2026-05-07 18:59 37.17143 -77.67645 34917 ft 562 kts 59°
2026-05-07 18:59 37.20646 -77.59000 34920 ft 562 kts 59°
2026-05-07 19:00 37.24197 -77.50240 34926 ft 561 kts 59°
2026-05-07 19:00 37.27745 -77.41463 34923 ft 561 kts 59°
2026-05-07 19:01 37.31253 -77.32755 34919 ft 561 kts 59°
2026-05-07 19:01 37.34729 -77.24113 34921 ft 561 kts 60°
2026-05-07 19:02 37.38250 -77.15314 34918 ft 560 kts 60°
2026-05-07 19:02 37.41217 -77.07882 34913 ft 560 kts 60°
2026-05-07 19:03 37.44017 -77.01593 34911 ft 555 kts 50°
2026-05-07 19:03 37.49087 -76.94314 34915 ft 544 kts 32°
2026-05-07 19:04 37.55225 -76.89096 34921 ft 528 kts 16°
2026-05-07 19:04 37.61830 -76.84889 34916 ft 528 kts 14°
2026-05-07 19:05 37.68342 -76.80695 34914 ft 530 kts 15°
2026-05-07 19:05 37.74930 -76.76325 34917 ft 532 kts 16°
2026-05-07 19:06 37.81497 -76.71922 34916 ft 531 kts 16°
2026-05-07 19:06 37.91367 -76.65398 34903 ft 530 kts 14°
2026-05-07 19:07 37.97999 -76.61236 34905 ft 532 kts 14°
2026-05-07 19:07 38.04637 -76.57051 34908 ft 536 kts 14°
2026-05-07 19:08 38.11108 -76.52934 34906 ft 536 kts 14°
2026-05-07 19:08 38.17749 -76.48691 34911 ft 535 kts 15°
2026-05-07 19:09 38.24440 -76.44413 34910 ft 533 kts 15°
2026-05-07 19:09 38.30919 -76.39654 34909 ft 547 kts 23°
2026-05-07 19:10 38.37067 -76.33859 34901 ft 551 kts 29°
2026-05-07 19:10 38.43140 -76.27812 34903 ft 552 kts 28°
2026-05-07 19:11 38.49218 -76.21807 34903 ft 551 kts 28°
2026-05-07 19:11 38.55291 -76.15848 34904 ft 550 kts 28°
2026-05-07 19:12 38.61360 -76.09882 34906 ft 551 kts 28°
2026-05-07 19:12 38.67497 -76.03999 34903 ft 548 kts 26°
2026-05-07 19:13 38.73692 -75.98267 34904 ft 549 kts 26°
2026-05-07 19:13 38.79708 -75.92667 34900 ft 549 kts 27°
2026-05-07 19:14 38.82794 -75.89771 34783 ft 548 kts 26°
2026-05-07 19:14 38.85886 -75.86870 34062 ft 552 kts 26°
2026-05-07 19:14 38.89015 -75.83934 33017 ft 560 kts 27°
2026-05-07 19:14 38.92191 -75.80959 32133 ft 564 kts 27°
2026-05-07 19:15 38.95365 -75.77963 31621 ft 560 kts 28°
2026-05-07 19:15 38.98457 -75.75028 31167 ft 554 kts 27°
2026-05-07 19:15 39.01549 -75.72097 30691 ft 549 kts 28°
2026-05-07 19:15 39.04644 -75.69168 30155 ft 546 kts 28°
2026-05-07 19:16 39.07728 -75.66249 29586 ft 544 kts 28°
2026-05-07 19:16 39.10648 -75.63474 29134 ft 540 kts 28°
2026-05-07 19:16 39.13673 -75.60601 28657 ft 535 kts 28°
2026-05-07 19:16 39.16708 -75.57712 28175 ft 531 kts 28°
2026-05-07 19:17 39.19680 -75.54882 27713 ft 526 kts 28°
2026-05-07 19:17 39.22631 -75.52074 27269 ft 521 kts 28°
2026-05-07 19:17 39.25595 -75.49365 26814 ft 514 kts 26°